Home > Weather > Changchun > Past weeks

Flag for China Weather for the Past 2 Weeks in Changchun, Jilin, China

Now
48 °F

Passing clouds.


Feels Like: 43 °F
Forecast: 26 / 45 °F
Wind: 13 mph from South

Location: Changchun Airport

Current Time: Feb 11, 2016 at 4:54:18 PM

Latest Report: Feb 11, 2016 at 4:00 PM


Visibility: N/A

Pressure: 29.98 "Hg

Humidity: 43%

Dew point: 27 °F

Location of ChangchunLocation

Historic Weather in Changchun — Graph

°F

Changchun Temperature Yesterday

Maximum temperature yesterday: 41 °F (at 1:00 PM)
Minimum temperature yesterday: 12 °F (at 12:00 AM)
Average temperature yesterday: 26 °F

High & Low Weather Summary for the Past Weeks

 TemperatureHumidityPressure
High48 °F (Feb 11, 1:00 PM)78% (Feb 9, 12:00 AM)30.69 "Hg (Feb 9, 12:00 AM)
Low-17 °F (Jan 30, 6:00 AM)22% (Feb 10, 1:00 PM)29.77 "Hg (Feb 8, 4:00 AM)
Average11 °F53%30.25 "Hg
* Reported Jan 27 3:00 PM — Feb 11 3:00 PM, Changchun, Weather by CustomWeather, © 2016

Note: Actual official high and low records may vary slightly from our data, if they occured in-between our weather recording intervals... More about our weather records

Advertising

Changchun Weather History for the Previous 24 Hours

 ConditionsComfort  
Time TempWeatherWind HumidityBarometerVisibility
3:00 PM
Thu, Feb 11
48 °FPassing clouds.10 mph37%29.98 "HgN/A
2:00 PM48 °FSunny.20 mph34%30.01 "Hg10 mi
1:00 PM48 °FSunny.15 mph32%30.01 "Hg10 mi
12:00 PM45 °FPartly sunny.13 mph31%30.04 "HgN/A
11:00 AM41 °FSunny.15 mph31%30.07 "Hg10 mi
10:00 AM39 °FSunny.13 mph30%30.09 "Hg10 mi
9:00 AM34 °FSunny.10 mph35%30.12 "Hg10 mi
8:00 AM30 °FSunny.8 mph43%30.12 "Hg10 mi
7:00 AM27 °FPassing clouds.8 mph50%30.12 "HgN/A
6:00 AM28 °FClear.8 mph51%30.12 "Hg10 mi
5:00 AM27 °FClear.8 mph54%30.12 "Hg10 mi
4:00 AM27 °FClear.8 mph54%30.12 "Hg10 mi
3:00 AM25 °FClear.8 mph59%30.15 "Hg10 mi
2:00 AM27 °FClear.8 mph54%30.15 "Hg10 mi
1:00 AM27 °FClear.8 mph59%30.15 "Hg10 mi
12:00 AM30 °FClear.10 mph51%30.12 "Hg10 mi
11:00 PM
Wed, Feb 10
30 °FClear.10 mph51%30.12 "Hg10 mi
10:00 PM30 °FClear.10 mph51%30.12 "Hg10 mi
9:00 PM30 °FClear.8 mph51%30.12 "Hg10 mi
8:00 PM30 °FClear.6 mph51%30.09 "Hg10 mi
7:00 PM30 °FClear.6 mph51%30.09 "Hg10 mi
6:00 PM32 °FClear.8 mph51%30.09 "Hg10 mi
5:00 PM36 °FSunny.10 mph41%30.07 "Hg10 mi
4:00 PM37 °FSunny.10 mph35%30.07 "Hg10 mi
Weather by CustomWeather, © 2016

See weather overviewHow to use our weather pages